SCP
0 0 0 0 0 0 0 0 0 0 0 0 0 0 0 0 0 0 0 0 0 0 0 0 0 0 0 0 0 0 0 0
0 -0 0 0 0 0 0 0 0 0 0 0 0 0 0 0 0 0 0 0 0 0 0 0 0 0 0 0 0 0 0 0
0 0 0 0 0 0 0 0 0 0 0 0 0 0 0 0 0 0 0 0 0 0 0 0 0 0 0 0 0 0 0 0
0 0 0 0 0 0 0 0 0 0 0 0 0 0 0 0 0 0 0 0 0 0 0 0 0 0 0 0 0 0 0 0
0 0 0 0 0 0 0 0 0 0 0 0 0 0 0 0 0 0 0 0 0 0 0 0 0 0 0 0 0 0 0 0
0 0 0 0 0 0 0 0 0 0 0 0 0 0 0 0 0 0 0 0 0 0 0 0 0 0 0 0 0 0 0 0
0 0 0 0 0 0 0 0 0 0 0 0 0 0 0 0 0 0 0 0 0 0 0 0 0 0 0 0 0 0 0 0
0 0 0 0 0 0 0 0 0 0 0 0 0 0 0 0 0 0 0 0 0 0 0 0 0 0 0 0 0 0 0 0
0 0 0 0 0 0 0 0 0 0 0 0 0 0 0 0 0 0 0 0 0 0 0 0 0 0 0 0 0 0 0 0
0 -0 0 0 0 -0 0 0 0 0 0 0 0 0 0 0 0 0 0 0 0 0 0 0 0 0 0 0 0 0 0 0
0 -0 -0 -0 -0 -0 -0 0 0 0 0 0 0 0 0 0 0 0 0 0 0 0 0 0 0 0 0 0 0 0 0 0
0 0 0 0 0 -0 -0 0 0 -0 0 0 0 0 0 0 0 0 -0 0 0 0 0 0 0 0 0 0 0 -0 -0 -0
0 0 0 0 0 0 -0 0 0 0 0 0 0 0 0 0 0 0 -0 0 0 0 0 0 0 -0 0 -0 -0 -0 -0 -0
0 0 0 0 0 0 0 0 -0 -0 0 0 0 0 0 0 0 -0 0 0 0 -0 0 0 -0 0 -0 -0 -0 -0 -0 0
0 0 0 0 0 0 -0 -0 -0 -0 -0 0 0 -0 -0 -0 -0 -0 -0 0 0 0 -0 -0 -0 -0 -0 -0 0 0 -0 0
0 0 0 0 0 0 -0 -0 -0 -0 -0 -0 -0 -0 -0 -0 -0 -0 0 0 -0 -0 -0 -0 -0 -0 -0 -0 -0 0 -0 0
0 0 0 0 0 0 -0 -0 -0 0 -0 0 -0 0 -0 -0 -0 -0 0 0 -0 -0 -0 -0 -0 -0 -0 -0 -0 0 0 0
0 0 0 0 0 0 0 0 -0 0 -0 0 0 -0 -0 -0 -0 -0 0 -0 -0 -0 -0 -0 -0 -0 -0 -0 -0 -0 0 0
0 0 0 0 0 0 0 -0 -0 -0 -0 -0 0 -0 -0 -0 -0 -0 0 0 -0 -0 -0 -0 -0 -0 -0 -0 -0 0 -0 -0
0 0 0 0 0 0 0 -0 -0 -0 -0 -0 0 -0 0 -0 -0 -0 -0 0 0 -0 -0 -0 -0 0 0 -0 -0 -0 -0 -0
Wind_Speed_500mb
58 51 47 45 41 32 26 18 10 4 5 12 15 19 24 29 34 39 44 49 52 55 56 60 65 63 55 45 42 43 42 49
52 64 57 46 40 31 19 11 3 10 14 17 19 23 28 32 36 39 41 45 51 57 60 61 44 39 40 45 50 53 55 61
53 52 44 35 24 15 10 4 10 17 23 23 22 26 31 32 36 40 42 46 53 60 63 61 43 44 48 54 57 60 61 68
54 49 40 33 19 8 7 13 20 23 26 26 27 31 35 38 40 45 49 54 59 63 61 52 46 49 54 62 52 55 65 69
49 41 34 21 7 8 14 18 19 19 23 24 29 36 42 46 49 52 55 57 59 57 50 43 45 48 51 50 51 62 66 69
46 33 18 5 5 13 19 21 21 25 31 35 40 45 49 48 50 51 52 50 45 42 41 42 45 55 48 52 59 62 60 57
38 21 10 1 11 20 22 24 26 30 35 41 46 44 43 46 50 50 48 45 39 37 33 37 43 48 52 61 57 45 52 61
22 12 11 15 26 30 32 31 31 36 41 41 40 38 39 43 47 47 45 37 37 37 42 41 41 48 52 50 31 42 54 66
17 17 26 32 37 39 39 38 36 36 37 36 38 37 35 36 41 39 37 31 31 33 38 41 45 47 44 29 29 43 50 72
23 26 31 33 36 42 46 47 41 38 36 35 34 32 30 33 35 33 27 27 31 37 42 41 40 40 36 28 35 42 54 62
27 25 25 33 39 42 47 49 50 46 38 35 33 32 27 27 33 32 30 29 30 32 36 45 46 38 34 40 45 47 40 44
15 14 22 29 35 41 39 44 49 53 53 38 33 29 26 28 27 27 27 28 28 32 40 44 43 43 50 51 46 29 31 30
19 24 25 24 32 39 42 41 53 57 58 39 31 28 27 29 31 30 25 20 24 29 35 42 50 52 49 45 36 31 38 43
23 26 23 26 33 36 45 37 51 60 63 42 33 30 36 37 40 36 22 12 11 11 20 36 39 43 48 35 25 23 32 44
22 22 20 24 29 35 47 33 42 60 69 49 32 32 38 41 37 37 37 21 13 20 25 29 30 35 35 26 22 24 36 50
13 11 16 23 28 37 43 34 40 48 63 56 35 31 35 38 39 37 35 36 39 33 33 36 31 27 19 20 21 21 45 58
12 18 23 25 25 32 31 34 36 39 56 60 45 32 33 37 42 43 39 41 41 46 43 38 26 24 27 11 21 36 47 51
24 32 31 28 22 28 27 29 33 31 46 53 52 43 40 42 44 46 45 47 45 49 51 56 46 37 41 43 43 46 47 58
22 30 34 28 26 31 30 32 32 36 38 43 46 49 51 48 48 49 50 49 49 48 51 52 53 52 52 57 62 56 51 50
18 29 38 30 23 29 29 27 26 27 25 35 42 37 46 51 54 55 54 52 50 50 50 51 53 57 52 50 53 55 57 55
Wind_Direction_500mb
107 104 109 115 117 113 107 105 116 139 251 281 295 303 302 303 305 306 305 303 303 303 303 303 302 302 303 301 299 290 290 283
109 113 114 112 110 104 111 90 9 280 272 281 296 306 311 312 312 312 312 309 304 300 301 305 303 297 294 287 286 287 289 291
115 106 100 97 90 82 54 346 305 307 313 318 319 313 307 304 301 301 296 292 293 296 300 303 302 295 291 292 292 294 299 302
110 106 102 95 92 72 333 302 310 322 327 324 321 308 302 298 293 290 290 290 291 291 294 292 294 292 294 293 297 303 303 302
104 101 93 84 58 324 296 301 315 312 305 299 292 290 292 297 300 300 299 298 294 292 288 284 290 293 297 301 302 307 304 305
94 91 95 102 265 275 296 304 298 301 295 294 294 298 302 304 305 307 307 304 305 308 295 286 292 293 299 298 300 306 303 305
100 107 123 179 314 322 323 318 313 301 302 305 307 309 309 309 312 314 314 309 309 311 306 300 302 301 301 302 313 308 309 310
106 82 22 359 6 359 351 343 331 324 319 320 321 319 315 316 319 318 314 313 308 315 315 310 314 312 312 316 313 312 310 310
60 41 30 31 19 13 9 358 346 337 332 331 330 326 325 329 324 321 320 316 315 321 318 318 317 315 320 314 311 316 314 315
65 40 25 23 18 14 16 13 3 350 338 334 337 334 332 332 328 326 324 323 319 314 314 314 318 327 335 321 325 323 319 318
73 49 24 13 12 14 14 18 15 4 349 344 341 346 340 337 336 333 333 328 322 328 324 324 328 337 346 345 342 332 321 317
74 51 30 16 0 359 10 14 15 9 4 356 351 350 355 354 353 347 341 338 330 325 329 333 335 338 347 347 338 323 333 328
51 44 36 17 356 1 8 10 17 12 7 8 15 18 21 15 10 2 351 352 336 349 358 341 335 336 345 333 319 336 347 344
51 49 30 6 358 9 13 8 24 16 12 17 21 28 25 17 12 25 39 5 35 28 2 352 335 329 334 331 333 347 351 350
60 53 29 359 9 14 11 12 23 17 15 15 23 28 25 20 18 19 30 75 62 17 7 347 334 338 345 344 354 20 18 359
47 38 23 12 31 21 15 22 18 17 15 17 22 26 29 26 30 33 34 31 31 22 16 2 356 356 12 13 22 30 6 6
42 35 26 23 42 29 25 27 15 20 11 16 21 29 34 34 38 40 40 39 31 24 15 26 25 32 32 16 29 32 18 2
32 29 23 29 45 32 40 32 27 24 12 13 23 33 36 40 38 39 40 40 36 33 28 27 32 40 40 53 53 35 30 32
25 30 26 38 47 52 48 46 44 32 17 13 20 35 39 42 42 40 40 40 40 39 38 39 43 51 53 59 61 55 54 45
39 37 28 33 62 70 53 40 39 40 32 22 13 27 39 43 45 43 43 43 40 40 40 42 45 50 51 55 62 59 70 73
Wind_Speed_850mb
58 51 47 45 41 32 26 18 10 4 5 12 15 19 24 29 34 39 44 49 52 55 56 60 65 63 55 45 42 43 42 49
52 64 57 46 40 31 19 11 3 10 14 17 19 23 28 32 36 39 41 45 51 57 60 61 44 39 40 45 50 53 55 61
53 52 44 35 24 15 10 4 10 17 23 23 22 26 31 32 36 40 42 46 53 60 63 61 43 44 48 54 57 60 61 68
54 49 40 33 19 8 7 13 20 23 26 26 27 31 35 38 40 45 49 54 59 63 61 52 46 49 54 62 52 55 65 69
49 41 34 21 7 8 14 18 19 19 23 24 29 36 42 46 49 52 55 57 59 57 50 43 45 48 51 50 51 62 66 69
46 33 18 5 5 13 19 21 21 25 31 35 40 45 49 48 50 51 52 50 45 42 41 42 45 55 48 52 59 62 60 57
38 21 10 1 11 20 22 24 26 30 35 41 46 44 43 46 50 50 48 45 39 37 33 37 43 48 52 61 57 45 52 61
22 12 11 15 26 30 32 31 31 36 41 41 40 38 39 43 47 47 45 37 37 37 42 41 41 48 52 50 31 42 54 66
17 17 26 32 37 39 39 38 36 36 37 36 38 37 35 36 41 39 37 31 31 33 38 41 45 47 44 29 29 43 50 72
23 26 31 33 36 42 46 47 41 38 36 35 34 32 30 33 35 33 27 27 31 37 42 41 40 40 36 28 35 42 54 62
27 25 25 33 39 42 47 49 50 46 38 35 33 32 27 27 33 32 30 29 30 32 36 45 46 38 34 40 45 47 40 44
15 14 22 29 35 41 39 44 49 53 53 38 33 29 26 28 27 27 27 28 28 32 40 44 43 43 50 51 46 29 31 30
19 24 25 24 32 39 42 41 53 57 58 39 31 28 27 29 31 30 25 20 24 29 35 42 50 52 49 45 36 31 38 43
23 26 23 26 33 36 45 37 51 60 63 42 33 30 36 37 40 36 22 12 11 11 20 36 39 43 48 35 25 23 32 44
22 22 20 24 29 35 47 33 42 60 69 49 32 32 38 41 37 37 37 21 13 20 25 29 30 35 35 26 22 24 36 50
13 11 16 23 28 37 43 34 40 48 63 56 35 31 35 38 39 37 35 36 39 33 33 36 31 27 19 20 21 21 45 58
12 18 23 25 25 32 31 34 36 39 56 60 45 32 33 37 42 43 39 41 41 46 43 38 26 24 27 11 21 36 47 51
24 32 31 28 22 28 27 29 33 31 46 53 52 43 40 42 44 46 45 47 45 49 51 56 46 37 41 43 43 46 47 58
22 30 34 28 26 31 30 32 32 36 38 43 46 49 51 48 48 49 50 49 49 48 51 52 53 52 52 57 62 56 51 50
18 29 38 30 23 29 29 27 26 27 25 35 42 37 46 51 54 55 54 52 50 50 50 51 53 57 52 50 53 55 57 55
Wind_Direction_850mb
107 104 109 115 117 113 107 105 116 139 251 281 295 303 302 303 305 306 305 303 303 303 303 303 302 302 303 301 299 290 290 283
109 113 114 112 110 104 111 90 9 280 272 281 296 306 311 312 312 312 312 309 304 300 301 305 303 297 294 287 286 287 289 291
115 106 100 97 90 82 54 346 305 307 313 318 319 313 307 304 301 301 296 292 293 296 300 303 302 295 291 292 292 294 299 302
110 106 102 95 92 72 333 302 310 322 327 324 321 308 302 298 293 290 290 290 291 291 294 292 294 292 294 293 297 303 303 302
104 101 93 84 58 324 296 301 315 312 305 299 292 290 292 297 300 300 299 298 294 292 288 284 290 293 297 301 302 307 304 305
94 91 95 102 265 275 296 304 298 301 295 294 294 298 302 304 305 307 307 304 305 308 295 286 292 293 299 298 300 306 303 305
100 107 123 179 314 322 323 318 313 301 302 305 307 309 309 309 312 314 314 309 309 311 306 300 302 301 301 302 313 308 309 310
106 82 22 359 6 359 351 343 331 324 319 320 321 319 315 316 319 318 314 313 308 315 315 310 314 312 312 316 313 312 310 310
60 41 30 31 19 13 9 358 346 337 332 331 330 326 325 329 324 321 320 316 315 321 318 318 317 315 320 314 311 316 314 315
65 40 25 23 18 14 16 13 3 350 338 334 337 334 332 332 328 326 324 323 319 314 314 314 318 327 335 321 325 323 319 318
73 49 24 13 12 14 14 18 15 4 349 344 341 346 340 337 336 333 333 328 322 328 324 324 328 337 346 345 342 332 321 317
74 51 30 16 0 359 10 14 15 9 4 356 351 350 355 354 353 347 341 338 330 325 329 333 335 338 347 347 338 323 333 328
51 44 36 17 356 1 8 10 17 12 7 8 15 18 21 15 10 2 351 352 336 349 358 341 335 336 345 333 319 336 347 344
51 49 30 6 358 9 13 8 24 16 12 17 21 28 25 17 12 25 39 5 35 28 2 352 335 329 334 331 333 347 351 350
60 53 29 359 9 14 11 12 23 17 15 15 23 28 25 20 18 19 30 75 62 17 7 347 334 338 345 344 354 20 18 359
47 38 23 12 31 21 15 22 18 17 15 17 22 26 29 26 30 33 34 31 31 22 16 2 356 356 12 13 22 30 6 6
42 35 26 23 42 29 25 27 15 20 11 16 21 29 34 34 38 40 40 39 31 24 15 26 25 32 32 16 29 32 18 2
32 29 23 29 45 32 40 32 27 24 12 13 23 33 36 40 38 39 40 40 36 33 28 27 32 40 40 53 53 35 30 32
25 30 26 38 47 52 48 46 44 32 17 13 20 35 39 42 42 40 40 40 40 39 38 39 43 51 53 59 61 55 54 45
39 37 28 33 62 70 53 40 39 40 32 22 13 27 39 43 45 43 43 43 40 40 40 42 45 50 51 55 62 59 70 73